Home   Weather   Zárate   Past weeks

Flag for Argentina Past Weather in Zárate, Buenos Aires, Argentina — Yesterday and Last 2 Weeks

Now
59 °F

Fog.


Feels Like: 58 °F
Forecast: 62 / 77 °F
Wind: 8 mph from Southeast

Location: Buenos Aires Airport

Current Time: Jul 26, 2017 at 11:49:35 pm

Latest Report: Jul 26, 2017 at 11:20 pm


Visibility: 1 mi

Pressure: 30.12 "Hg

Humidity: 100%

Dew Point: 59 °F

Location of ZárateLocation

Past Weather in Zárate — Graph

°F

Zárate Temperature Yesterday

Maximum temperature yesterday: 57 °F (at 11:00 am)
Minimum temperature yesterday: 52 °F (at 2:00 am)
Average temperature yesterday: 55 °F

High & Low Weather Summary for the Past Weeks

 TemperatureHumidityPressure
High75 °F (Jul 13, 3:25 pm)100% (Jul 13, 1:00 am)30.42 "Hg (Jul 13, 1:00 am)
Low37 °F (Jul 17, 6:00 am)23% (Jul 18, 2:00 pm)29.56 "Hg (Jul 15, 7:38 am)
Average55 °F74%30.06 "Hg
* Reported Jul 11 10:00 pm — Jul 26 10:10 pm, Zárate. Weather by CustomWeather, © 2017

Note: Actual official high and low records may vary slightly from our data, if they occured in-between our weather recording intervals... More about our weather records

Advertising

Zárate Weather History for the Previous 24 Hours

Scroll right to see more
 ConditionsComfort  
Time TempWeatherWind HumidityBarometerVisibility
10:10 pm
Wed, Jul 26
59 °FFog.7 mph100%30.12 "Hg0 mi
10:00 pm59 °FFog.8 mph100%30.12 "Hg0 mi
9:00 pm59 °FFog.8 mph94%30.12 "Hg2 mi
8:00 pm59 °FFog.9 mph94%30.12 "Hg2 mi
7:00 pm57 °FFog.7 mph100%30.09 "Hg2 mi
6:43 pm59 °FFog.7 mph94%30.09 "Hg2 mi
6:00 pm59 °FFog.8 mph94%30.09 "Hg1 mi
5:00 pm59 °FFog.7 mph100%30.09 "Hg1 mi
4:10 pm59 °FFog.9 mph94%30.09 "Hg1 mi
4:00 pm63 °FFog.9 mph88%30.09 "Hg1 mi
3:10 pm66 °FFog.6 mph83%30.09 "Hg1 mi
3:00 pm61 °FFog.6 mph94%30.09 "Hg2 mi
2:00 pm61 °FBroken clouds.6 mph94%30.09 "Hg4 mi
1:00 pm61 °FLow clouds.6 mph94%30.15 "Hg4 mi
12:30 pm61 °FLow clouds.5 mph94%30.15 "Hg4 mi
12:00 pm59 °FFog.7 mph94%30.15 "Hg2 mi
11:35 am59 °FDrizzle. Fog.7 mph94%30.15 "Hg2 mi
11:00 am59 °FDrizzle. Fog.8 mph94%30.15 "Hg1 mi
10:35 am59 °FDrizzle. Fog.7 mph94%30.15 "Hg1 mi
10:00 am59 °FLow clouds.6 mph94%30.15 "Hg5 mi
8:00 am57 °FMore clouds than sun.10 mph94%30.12 "Hg5 mi
7:00 am57 °FMostly cloudy.12 mph94%30.09 "Hg5 mi
6:00 am57 °FLow clouds.15 mph94%30.09 "Hg5 mi
5:00 am55 °FMostly cloudy.12 mph100%30.12 "Hg5 mi
4:00 am57 °FMostly cloudy.14 mph94%30.12 "Hg5 mi
3:00 am55 °FLow clouds.14 mph100%30.12 "Hg5 mi
2:00 am55 °FDrizzle. Low clouds.15 mph100%30.12 "Hg5 mi
1:00 am55 °FLow clouds.13 mph100%30.15 "HgN/A
12:00 am55 °FLow clouds.15 mph100%30.15 "HgN/A
11:00 pm
Tue, Jul 25
55 °FLow clouds.17 mph94%30.15 "HgN/A
Weather by CustomWeather, © 2017

See weather overviewHow to use our weather pages